KZR721 ZWWW-UAAA

Flight info

Callsign KZR721
Flight time 1h 34m
Altitude 36100
Route NIXER4L NIXER W119 GOBOK A343 RULAD/K0841F361 M610 BERTO Z315 ALUGI ALUGI1Z
Aircraft A321/M-L/S

Departure

Time 2026-04-23 15:19
Airport Ürümqi Tianshan International Airport (ZWWW)

Arrival

Time 2026-04-23 16:53
Airport Almaty International Airport (UAAA)
Time Latitude Longitude Altitude Speed Heading
2026-04-23 14:50 43.90211 87.47249 2135 ft 0 kts 164°
2026-04-23 15:08 43.90220 87.47246 2134 ft 2 kts 163°
2026-04-23 15:08 43.90236 87.47239 2134 ft 2 kts 162°
2026-04-23 15:09 43.90268 87.47225 2134 ft 2 kts 175°
2026-04-23 15:09 43.90284 87.47225 2134 ft 2 kts 190°
2026-04-23 15:09 43.90300 87.47231 2134 ft 2 kts 206°
2026-04-23 15:09 43.90313 87.47243 2134 ft 2 kts 234°
2026-04-23 15:10 43.90316 87.47248 2134 ft 1 kts 245°
2026-04-23 15:10 43.90316 87.47249 2134 ft 0 kts 245°
2026-04-23 15:12 43.90315 87.47247 2134 ft 1 kts 246°
2026-04-23 15:12 43.90310 87.47221 2134 ft 5 kts 252°
2026-04-23 15:13 43.90296 87.47162 2134 ft 8 kts 252°
2026-04-23 15:13 43.90291 87.47087 2135 ft 7 kts 291°
2026-04-23 15:13 43.90341 87.47042 2134 ft 10 kts 330°
2026-04-23 15:13 43.90363 87.46970 2135 ft 10 kts 264°
2026-04-23 15:14 43.90343 87.46868 2135 ft 12 kts 254°
2026-04-23 15:14 43.90317 87.46743 2133 ft 15 kts 253°
2026-04-23 15:14 43.90286 87.46599 2133 ft 17 kts 253°
2026-04-23 15:14 43.90249 87.46431 2135 ft 19 kts 253°
2026-04-23 15:15 43.90214 87.46266 2134 ft 18 kts 254°
2026-04-23 15:15 43.90181 87.46110 2133 ft 16 kts 252°
2026-04-23 15:15 43.90153 87.45976 2135 ft 10 kts 253°
2026-04-23 15:15 43.90145 87.45904 2135 ft 6 kts 275°
2026-04-23 15:16 43.90165 87.45867 2133 ft 4 kts 329°
2026-04-23 15:16 43.90200 87.45848 2134 ft 5 kts 341°
2026-04-23 15:16 43.90229 87.45834 2134 ft 3 kts 342°
2026-04-23 15:16 43.90255 87.45824 2135 ft 5 kts 344°
2026-04-23 15:17 43.90298 87.45807 2135 ft 8 kts 344°
2026-04-23 15:17 43.90354 87.45787 2135 ft 8 kts 359°
2026-04-23 15:17 43.90374 87.45823 2135 ft 1 kts 73°
2026-04-23 15:17 43.90394 87.45917 2134 ft 34 kts 73°
2026-04-23 15:18 43.90515 87.46490 2135 ft 87 kts 75°
2026-04-23 15:18 43.90727 87.47492 2135 ft 128 kts 73°
2026-04-23 15:18 43.91014 87.48843 2142 ft 162 kts 75°
2026-04-23 15:18 43.91322 87.50363 2480 ft 160 kts 76°
2026-04-23 15:19 43.91615 87.51821 2864 ft 156 kts 75°
2026-04-23 15:19 43.91913 87.53283 3140 ft 159 kts 74°
2026-04-23 15:19 43.92219 87.54766 3414 ft 161 kts 74°
2026-04-23 15:19 43.92533 87.56256 3703 ft 161 kts 73°
2026-04-23 15:20 43.92742 87.57236 3888 ft 159 kts 73°
2026-04-23 15:20 43.93179 87.59234 4141 ft 164 kts 73°
2026-04-23 15:20 43.93518 87.60762 4318 ft 169 kts 73°
2026-04-23 15:20 43.93869 87.62367 4451 ft 178 kts 73°
2026-04-23 15:21 43.94232 87.64033 4576 ft 187 kts 73°
2026-04-23 15:21 43.94490 87.65222 4661 ft 193 kts 73°
2026-04-23 15:21 43.94435 87.67703 4814 ft 203 kts 113°
2026-04-23 15:21 43.93550 87.69238 4930 ft 209 kts 146°
2026-04-23 15:22 43.92188 87.69996 5066 ft 216 kts 164°
2026-04-23 15:22 43.91205 87.70387 5141 ft 226 kts 164°
2026-04-23 15:22 43.89621 87.71025 5289 ft 248 kts 163°
2026-04-23 15:22 43.87880 87.71527 5618 ft 264 kts 181°
2026-04-23 15:23 43.86090 87.70860 6027 ft 274 kts 213°
2026-04-23 15:23 43.84776 87.68959 6548 ft 278 kts 244°
2026-04-23 15:23 43.84148 87.66414 7118 ft 282 kts 255°
2026-04-23 15:23 43.83599 87.63794 7725 ft 285 kts 254°
2026-04-23 15:24 43.83037 87.61155 8378 ft 287 kts 254°
2026-04-23 15:24 43.82469 87.58493 9026 ft 289 kts 253°
2026-04-23 15:24 43.81898 87.55813 9672 ft 291 kts 253°
2026-04-23 15:24 43.81320 87.53111 10199 ft 297 kts 253°
2026-04-23 15:25 43.80725 87.50330 10418 ft 312 kts 253°
2026-04-23 15:25 43.80118 87.47369 10605 ft 328 kts 257°
2026-04-23 15:25 43.79812 87.44165 10764 ft 344 kts 267°
2026-04-23 15:25 43.79725 87.40782 10954 ft 357 kts 268°
2026-04-23 15:26 43.79635 87.37321 11356 ft 362 kts 268°
2026-04-23 15:26 43.79543 87.33837 11849 ft 363 kts 268°
2026-04-23 15:26 43.79447 87.30333 12355 ft 365 kts 268°
2026-04-23 15:26 43.79349 87.26819 12836 ft 367 kts 268°
2026-04-23 15:27 43.79249 87.23275 13302 ft 369 kts 268°
2026-04-23 15:27 43.79147 87.19723 13761 ft 371 kts 268°
2026-04-23 15:27 43.79044 87.16137 14159 ft 373 kts 268°
2026-04-23 15:27 43.78941 87.12588 14575 ft 374 kts 268°
2026-04-23 15:28 43.78833 87.08981 14984 ft 376 kts 266°
2026-04-23 15:28 43.78426 87.05406 15399 ft 377 kts 256°
2026-04-23 15:28 43.77523 87.01993 15821 ft 380 kts 245°
2026-04-23 15:28 43.76282 86.98750 16223 ft 382 kts 243°
2026-04-23 15:29 43.75019 86.95505 16619 ft 383 kts 243°
2026-04-23 15:29 43.73751 86.92250 17015 ft 385 kts 243°
2026-04-23 15:29 43.72478 86.88979 17408 ft 387 kts 244°
2026-04-23 15:29 43.71202 86.85697 17816 ft 388 kts 244°
2026-04-23 15:30 43.69920 86.82400 18215 ft 390 kts 244°
2026-04-23 15:30 43.68631 86.79091 18563 ft 392 kts 244°
2026-04-23 15:30 43.67337 86.75769 18881 ft 394 kts 244°
2026-04-23 15:30 43.66033 86.72424 19195 ft 396 kts 244°
2026-04-23 15:31 43.64719 86.69071 19496 ft 398 kts 244°
2026-04-23 15:31 43.63415 86.65746 19811 ft 400 kts 244°
2026-04-23 15:31 43.62082 86.62370 20143 ft 401 kts 244°
2026-04-23 15:31 43.60738 86.58977 20466 ft 404 kts 244°
2026-04-23 15:32 43.59390 86.55570 20796 ft 405 kts 244°
2026-04-23 15:32 43.58254 86.52033 21075 ft 403 kts 254°
2026-04-23 15:32 43.57619 86.48275 21352 ft 402 kts 265°
2026-04-23 15:32 43.57492 86.44438 21656 ft 400 kts 275°
2026-04-23 15:33 43.57820 86.40627 21946 ft 401 kts 280°
2026-04-23 15:33 43.58233 86.36818 22223 ft 402 kts 280°
2026-04-23 15:33 43.58642 86.33002 22471 ft 403 kts 280°
2026-04-23 15:33 43.59047 86.29163 22731 ft 405 kts 280°
2026-04-23 15:34 43.59447 86.25316 23016 ft 406 kts 280°
2026-04-23 15:34 43.59847 86.21452 23311 ft 407 kts 280°
2026-04-23 15:34 43.60247 86.17579 23597 ft 408 kts 280°
2026-04-23 15:34 43.60649 86.13705 23846 ft 409 kts 280°
2026-04-23 15:35 43.61052 86.09815 24100 ft 410 kts 279°
2026-04-23 15:35 43.61459 86.05920 24359 ft 410 kts 280°
2026-04-23 15:35 43.61873 86.02074 24642 ft 410 kts 280°
2026-04-23 15:35 43.62301 85.98182 24854 ft 410 kts 280°
2026-04-23 15:36 43.62731 85.94286 25098 ft 411 kts 280°
2026-04-23 15:36 43.63159 85.90385 25390 ft 410 kts 280°
2026-04-23 15:36 43.63582 85.86487 25629 ft 410 kts 280°
2026-04-23 15:36 43.63994 85.82588 25882 ft 411 kts 279°
2026-04-23 15:37 43.64350 85.78671 26139 ft 411 kts 278°
2026-04-23 15:37 43.64660 85.74747 26407 ft 411 kts 277°
2026-04-23 15:37 43.64947 85.70829 26795 ft 409 kts 277°
2026-04-23 15:37 43.65224 85.66976 27134 ft 406 kts 277°
2026-04-23 15:38 43.65512 85.63102 27495 ft 404 kts 277°
2026-04-23 15:38 43.65807 85.59256 27841 ft 401 kts 277°
2026-04-23 15:38 43.66106 85.55442 28214 ft 398 kts 277°
2026-04-23 15:38 43.66407 85.51647 28638 ft 396 kts 277°
2026-04-23 15:39 43.66702 85.47889 29063 ft 392 kts 277°
2026-04-23 15:39 43.66990 85.44153 29502 ft 390 kts 277°
2026-04-23 15:39 43.67275 85.40443 29905 ft 387 kts 277°
2026-04-23 15:39 43.67554 85.36764 30293 ft 384 kts 277°
2026-04-23 15:40 43.67830 85.33099 30610 ft 382 kts 277°
2026-04-23 15:40 43.68102 85.29456 30902 ft 381 kts 276°
2026-04-23 15:40 43.68372 85.25818 31223 ft 380 kts 276°
2026-04-23 15:40 43.68641 85.22185 31550 ft 380 kts 276°
2026-04-23 15:41 43.68909 85.18556 31870 ft 378 kts 276°
2026-04-23 15:41 43.69108 85.14938 32119 ft 378 kts 270°
2026-04-23 15:41 43.68841 85.11309 32187 ft 380 kts 261°
2026-04-23 15:41 43.68044 85.07869 32200 ft 386 kts 249°
2026-04-23 15:42 43.66719 85.04617 32197 ft 391 kts 242°
2026-04-23 15:42 43.63760 84.98319 32208 ft 391 kts 242°
2026-04-23 15:43 43.60818 84.92001 32213 ft 391 kts 242°
2026-04-23 15:43 43.57870 84.85699 32213 ft 391 kts 242°
2026-04-23 15:44 43.54911 84.79410 32210 ft 390 kts 242°
2026-04-23 15:44 43.51952 84.73134 32203 ft 390 kts 242°
2026-04-23 15:45 43.49015 84.66897 32195 ft 390 kts 242°
2026-04-23 15:45 43.46050 84.60622 32208 ft 390 kts 241°
2026-04-23 15:46 43.43090 84.54371 32186 ft 390 kts 241°
2026-04-23 15:46 43.40124 84.48126 32190 ft 390 kts 241°
2026-04-23 15:47 43.37163 84.41875 32182 ft 389 kts 242°
2026-04-23 15:47 43.35968 84.38573 32181 ft 384 kts 253°
2026-04-23 15:47 43.35278 84.35049 32165 ft 381 kts 263°
2026-04-23 15:48 43.35389 84.27843 32179 ft 381 kts 277°
2026-04-23 15:48 43.36084 84.20625 32164 ft 381 kts 276°
2026-04-23 15:49 43.36759 84.13402 32168 ft 382 kts 276°
2026-04-23 15:49 43.37429 84.06160 32159 ft 382 kts 276°
2026-04-23 15:50 43.38094 83.98915 32148 ft 382 kts 276°
2026-04-23 15:50 43.38760 83.91658 32155 ft 382 kts 276°
2026-04-23 15:51 43.39408 83.84445 32145 ft 382 kts 276°
2026-04-23 15:51 43.40063 83.77174 32144 ft 383 kts 276°
2026-04-23 15:52 43.40717 83.69898 32140 ft 383 kts 276°
2026-04-23 15:52 43.41365 83.62627 32136 ft 383 kts 276°
2026-04-23 15:53 43.42000 83.55349 32140 ft 383 kts 276°
2026-04-23 15:53 43.42640 83.48067 32130 ft 383 kts 276°
2026-04-23 15:54 43.43279 83.40780 32130 ft 383 kts 276°
2026-04-23 15:54 43.43777 83.33534 32134 ft 383 kts 273°
2026-04-23 15:55 43.44006 83.26216 32123 ft 383 kts 271°
2026-04-23 15:55 43.44193 83.18889 32120 ft 383 kts 272°
2026-04-23 15:56 43.44422 83.11573 32117 ft 382 kts 272°
2026-04-23 15:56 43.44669 83.04311 32113 ft 382 kts 272°
2026-04-23 15:57 43.44917 82.97008 32114 ft 381 kts 272°
2026-04-23 15:57 43.45158 82.89724 32114 ft 381 kts 272°
2026-04-23 15:58 43.45392 82.82449 32120 ft 380 kts 272°
2026-04-23 15:58 43.45613 82.75225 32112 ft 380 kts 272°
2026-04-23 15:59 43.45827 82.67968 32114 ft 379 kts 272°
2026-04-23 15:59 43.46040 82.60717 32115 ft 378 kts 272°
2026-04-23 16:00 43.46250 82.53470 32113 ft 378 kts 271°
2026-04-23 16:00 43.46456 82.46254 32111 ft 377 kts 271°
2026-04-23 16:01 43.46659 82.39033 32115 ft 377 kts 271°
2026-04-23 16:01 43.46858 82.31875 32114 ft 376 kts 271°
2026-04-23 16:02 43.47052 82.24670 32116 ft 376 kts 271°
2026-04-23 16:02 43.47241 82.17491 32113 ft 375 kts 271°
2026-04-23 16:03 43.47425 82.10306 32116 ft 375 kts 271°
2026-04-23 16:03 43.47602 82.03175 32117 ft 374 kts 271°
2026-04-23 16:04 43.47768 81.96017 32121 ft 373 kts 271°
2026-04-23 16:04 43.47932 81.88869 32118 ft 373 kts 270°
2026-04-23 16:05 43.48068 81.82927 32123 ft 373 kts 270°
2026-04-23 16:05 43.48251 81.74590 32128 ft 372 kts 270°
2026-04-23 16:06 43.48406 81.67501 32130 ft 372 kts 270°
2026-04-23 16:06 43.48558 81.60374 32131 ft 372 kts 270°
2026-04-23 16:07 43.48707 81.53246 32134 ft 372 kts 269°
2026-04-23 16:07 43.48848 81.46127 32137 ft 372 kts 269°
2026-04-23 16:08 43.48979 81.39012 32143 ft 372 kts 270°
2026-04-23 16:08 43.49112 81.31909 32145 ft 371 kts 270°
2026-04-23 16:09 43.49241 81.24806 32150 ft 371 kts 269°
2026-04-23 16:09 43.49363 81.17699 32150 ft 371 kts 269°
2026-04-23 16:10 43.49481 81.10583 32156 ft 371 kts 269°
2026-04-23 16:10 43.49594 81.03474 32157 ft 371 kts 269°
2026-04-23 16:11 43.49702 80.96416 32156 ft 371 kts 269°
2026-04-23 16:11 43.49808 80.89304 32156 ft 371 kts 269°
2026-04-23 16:12 43.49909 80.82209 32157 ft 370 kts 269°
2026-04-23 16:12 43.49990 80.76311 32159 ft 370 kts 269°
2026-04-23 16:12 43.50062 80.71482 32036 ft 381 kts 270°
2026-04-23 16:13 43.50174 80.67803 32055 ft 387 kts 271°
2026-04-23 16:13 43.50662 80.56545 32060 ft 400 kts 271°
2026-04-23 16:14 43.50927 80.50128 32054 ft 406 kts 271°
2026-04-23 16:14 43.51215 80.42291 32053 ft 412 kts 270°
2026-04-23 16:15 43.51495 80.34402 32056 ft 415 kts 270°
2026-04-23 16:15 43.51780 80.26459 32057 ft 415 kts 270°
2026-04-23 16:16 43.52065 80.18513 32059 ft 415 kts 270°
2026-04-23 16:16 43.52335 80.10563 32056 ft 414 kts 270°
2026-04-23 16:17 43.52595 80.02622 32059 ft 414 kts 270°
2026-04-23 16:17 43.52855 79.94678 32057 ft 414 kts 270°
2026-04-23 16:18 43.53114 79.86801 32055 ft 415 kts 272°
2026-04-23 16:18 43.54404 79.79005 32055 ft 423 kts 287°
2026-04-23 16:19 43.57283 79.71827 32056 ft 430 kts 296°
2026-04-23 16:19 43.60438 79.64823 32051 ft 430 kts 296°
2026-04-23 16:20 43.63556 79.57843 32046 ft 430 kts 296°
2026-04-23 16:20 43.66686 79.50800 32047 ft 430 kts 296°
2026-04-23 16:21 43.69814 79.43766 32043 ft 430 kts 296°
2026-04-23 16:21 43.72943 79.36718 32046 ft 430 kts 295°
2026-04-23 16:22 43.75985 79.29618 32044 ft 425 kts 290°
2026-04-23 16:22 43.77713 79.21940 32055 ft 415 kts 275°
2026-04-23 16:23 43.78007 79.14057 32062 ft 412 kts 269°
2026-04-23 16:23 43.78167 79.06130 32071 ft 412 kts 269°
2026-04-23 16:24 43.78326 78.98195 31868 ft 413 kts 269°
2026-04-23 16:24 43.78400 78.94215 31736 ft 413 kts 269°
2026-04-23 16:24 43.78472 78.90248 31619 ft 410 kts 269°
2026-04-23 16:25 43.78545 78.86341 31063 ft 403 kts 269°
2026-04-23 16:25 43.78614 78.82486 30502 ft 398 kts 269°
2026-04-23 16:25 43.78680 78.78683 29918 ft 393 kts 269°
2026-04-23 16:25 43.78743 78.74966 29343 ft 388 kts 269°
2026-04-23 16:26 43.78802 78.71253 28783 ft 383 kts 269°
2026-04-23 16:26 43.78859 78.67590 28210 ft 379 kts 268°
2026-04-23 16:26 43.78916 78.63961 27633 ft 374 kts 268°
2026-04-23 16:26 43.78972 78.60377 27055 ft 371 kts 268°
2026-04-23 16:27 43.79027 78.56833 26490 ft 367 kts 268°
2026-04-23 16:27 43.79078 78.53314 25930 ft 364 kts 268°
2026-04-23 16:27 43.79125 78.49826 25379 ft 361 kts 269°
2026-04-23 16:27 43.79172 78.46367 24826 ft 358 kts 269°
2026-04-23 16:28 43.79218 78.42932 24277 ft 356 kts 269°
2026-04-23 16:28 43.79264 78.39514 23735 ft 355 kts 270°
2026-04-23 16:28 43.79310 78.36109 23121 ft 353 kts 269°
2026-04-23 16:28 43.79354 78.32722 22587 ft 350 kts 269°
2026-04-23 16:29 43.79396 78.29370 22072 ft 347 kts 269°
2026-04-23 16:29 43.79437 78.26039 21570 ft 346 kts 269°
2026-04-23 16:29 43.79478 78.22707 21076 ft 346 kts 269°
2026-04-23 16:29 43.79516 78.19382 20596 ft 345 kts 269°
2026-04-23 16:30 43.79553 78.16062 20126 ft 345 kts 269°
2026-04-23 16:30 43.79587 78.12739 19663 ft 345 kts 270°
2026-04-23 16:30 43.79626 78.09416 19202 ft 345 kts 270°
2026-04-23 16:30 43.79671 78.06139 18737 ft 344 kts 270°
2026-04-23 16:31 43.79721 78.02826 18234 ft 344 kts 270°
2026-04-23 16:31 43.79761 77.99517 17900 ft 343 kts 268°
2026-04-23 16:31 43.79457 77.96245 17816 ft 343 kts 255°
2026-04-23 16:31 43.78640 77.93145 17368 ft 344 kts 243°
2026-04-23 16:32 43.77368 77.90346 16779 ft 343 kts 236°
2026-04-23 16:32 43.76035 77.87619 16247 ft 340 kts 236°
2026-04-23 16:32 43.74717 77.84906 15716 ft 338 kts 236°
2026-04-23 16:32 43.73413 77.82210 15188 ft 337 kts 236°
2026-04-23 16:33 43.72130 77.79549 14667 ft 336 kts 236°
2026-04-23 16:33 43.70843 77.76880 14147 ft 335 kts 235°
2026-04-23 16:33 43.69549 77.74199 13596 ft 334 kts 235°
2026-04-23 16:33 43.68262 77.71536 12980 ft 334 kts 236°
2026-04-23 16:34 43.66977 77.68880 12515 ft 330 kts 236°
2026-04-23 16:34 43.65701 77.66248 11916 ft 330 kts 237°
2026-04-23 16:34 43.64430 77.63633 11472 ft 326 kts 237°
2026-04-23 16:34 43.63163 77.61026 10936 ft 326 kts 237°
2026-04-23 16:35 43.61908 77.58443 10416 ft 325 kts 238°
2026-04-23 16:35 43.60664 77.55891 10215 ft 312 kts 238°
2026-04-23 16:35 43.59486 77.53483 10095 ft 294 kts 238°
2026-04-23 16:35 43.58366 77.51188 9830 ft 283 kts 238°
2026-04-23 16:36 43.57271 77.48930 9276 ft 287 kts 238°
2026-04-23 16:36 43.56175 77.46629 8898 ft 285 kts 239°
2026-04-23 16:36 43.55079 77.44317 8235 ft 288 kts 238°
2026-04-23 16:36 43.54019 77.42084 7897 ft 277 kts 238°
2026-04-23 16:37 43.52978 77.39899 7519 ft 269 kts 238°
2026-04-23 16:37 43.51966 77.37778 7159 ft 261 kts 238°
2026-04-23 16:37 43.50980 77.35715 6801 ft 254 kts 238°
2026-04-23 16:37 43.49961 77.33763 6443 ft 248 kts 235°
2026-04-23 16:38 43.48967 77.31862 6093 ft 238 kts 237°
2026-04-23 16:38 43.48106 77.30123 5962 ft 218 kts 237°
2026-04-23 16:38 43.47281 77.28439 5672 ft 208 kts 237°
2026-04-23 16:38 43.46505 77.26856 5519 ft 188 kts 237°
2026-04-23 16:39 43.45813 77.25448 5428 ft 168 kts 237°
2026-04-23 16:39 43.45181 77.24161 5302 ft 157 kts 238°
2026-04-23 16:39 43.44575 77.22928 5130 ft 157 kts 237°
2026-04-23 16:39 43.43965 77.21686 4931 ft 157 kts 237°
2026-04-23 16:40 43.43354 77.20445 4725 ft 156 kts 237°
2026-04-23 16:40 43.42747 77.19211 4528 ft 155 kts 237°
2026-04-23 16:40 43.42140 77.17978 4346 ft 156 kts 237°
2026-04-23 16:40 43.41537 77.16754 4120 ft 152 kts 236°
2026-04-23 16:41 43.40947 77.15556 3913 ft 151 kts 237°
2026-04-23 16:41 43.40359 77.14365 3713 ft 151 kts 236°
2026-04-23 16:41 43.39772 77.13173 3519 ft 150 kts 236°
2026-04-23 16:41 43.39188 77.11990 3275 ft 150 kts 235°
2026-04-23 16:42 43.38599 77.10798 3060 ft 150 kts 236°
2026-04-23 16:42 43.38013 77.09611 2853 ft 149 kts 236°
2026-04-23 16:42 43.37434 77.08437 2660 ft 147 kts 236°
2026-04-23 16:42 43.36864 77.07272 2450 ft 146 kts 236°
2026-04-23 16:43 43.36291 77.06115 2270 ft 147 kts 235°
2026-04-23 16:43 43.35737 77.05003 2264 ft 130 kts 234°
2026-04-23 16:43 43.35204 77.03951 2514 ft 139 kts 236°
2026-04-23 16:43 43.34658 77.02832 2854 ft 147 kts 236°
2026-04-23 16:44 43.34051 77.01647 3187 ft 155 kts 234°
2026-04-23 16:44 43.33432 77.00386 3561 ft 163 kts 238°
2026-04-23 16:44 43.32832 76.99041 3945 ft 167 kts 238°
2026-04-23 16:44 43.32303 76.97594 4242 ft 177 kts 250°
2026-04-23 16:45 43.32152 76.95901 4189 ft 172 kts 275°
2026-04-23 16:45 43.32693 76.94601 4188 ft 155 kts 324°
2026-04-23 16:45 43.33760 76.94334 4388 ft 168 kts 11°
2026-04-23 16:45 43.34768 76.95193 4669 ft 177 kts 46°
2026-04-23 16:46 43.35532 76.96569 4926 ft 185 kts 54°
2026-04-23 16:46 43.36255 76.98076 5106 ft 197 kts 56°
2026-04-23 16:46 43.37019 76.99700 5173 ft 204 kts 56°
2026-04-23 16:46 43.37787 77.01342 5180 ft 204 kts 56°
2026-04-23 16:47 43.38544 77.02960 5185 ft 204 kts 56°
2026-04-23 16:47 43.39308 77.04607 5184 ft 204 kts 56°
2026-04-23 16:47 43.40073 77.06252 5179 ft 204 kts 56°
2026-04-23 16:47 43.40839 77.07902 5183 ft 205 kts 56°
2026-04-23 16:48 43.41605 77.09554 5182 ft 204 kts 56°
2026-04-23 16:48 43.42382 77.11193 5184 ft 204 kts 53°
2026-04-23 16:48 43.43233 77.12753 5182 ft 204 kts 50°
2026-04-23 16:48 43.44104 77.14291 5131 ft 203 kts 50°
2026-04-23 16:49 43.44678 77.15332 4956 ft 202 kts 55°
2026-04-23 16:49 43.44847 77.17702 4588 ft 187 kts 122°
2026-04-23 16:49 43.43906 77.18693 4419 ft 165 kts 176°
2026-04-23 16:49 43.42922 77.18276 4229 ft 162 kts 224°
2026-04-23 16:50 43.42085 77.17218 4190 ft 164 kts 221°
2026-04-23 16:50 43.41259 77.16146 4045 ft 162 kts 235°
2026-04-23 16:50 43.40641 77.14925 3803 ft 150 kts 237°
2026-04-23 16:50 43.40059 77.13753 3590 ft 150 kts 236°
2026-04-23 16:51 43.39473 77.12566 3384 ft 149 kts 236°
2026-04-23 16:51 43.38887 77.11380 3169 ft 151 kts 237°
2026-04-23 16:51 43.38300 77.10191 2938 ft 150 kts 236°
2026-04-23 16:51 43.37718 77.09014 2754 ft 148 kts 236°
2026-04-23 16:52 43.37141 77.07850 2555 ft 147 kts 236°
2026-04-23 16:52 43.36573 77.06691 2345 ft 146 kts 237°
2026-04-23 16:52 43.36006 77.05547 2236 ft 138 kts 236°
2026-04-23 16:52 43.35533 77.04591 2226 ft 103 kts 236°
2026-04-23 16:53 43.35188 77.03892 2225 ft 74 kts 236°
2026-04-23 16:53 43.34942 77.03390 2230 ft 53 kts 236°
2026-04-23 16:53 43.34825 77.03132 2228 ft 20 kts 248°
2026-04-23 16:53 43.34791 77.02975 2229 ft 15 kts 262°
2026-04-23 16:54 43.34782 77.02838 2228 ft 14 kts 267°
2026-04-23 16:54 43.34778 77.02712 2228 ft 12 kts 267°
2026-04-23 16:54 43.34775 77.02606 2225 ft 10 kts 268°
2026-04-23 16:54 43.34773 77.02528 2227 ft 7 kts 268°
2026-04-23 16:55 43.34772 77.02468 2228 ft 7 kts 272°
2026-04-23 16:55 43.34778 77.02372 2229 ft 15 kts 275°
2026-04-23 16:55 43.34785 77.02227 2225 ft 14 kts 274°
2026-04-23 16:55 43.34791 77.02111 2229 ft 10 kts 274°
2026-04-23 16:56 43.34795 77.02028 2229 ft 9 kts 274°
2026-04-23 16:56 43.34799 77.01954 2229 ft 7 kts 274°
2026-04-23 16:56 43.34801 77.01916 2229 ft 5 kts 274°
2026-04-23 16:56 43.34803 77.01864 2229 ft 3 kts 274°
2026-04-23 16:57 43.34804 77.01843 2229 ft 1 kts 274°
2026-04-23 16:57 43.34805 77.01825 2229 ft 3 kts 274°
2026-04-23 16:57 43.34807 77.01794 2229 ft 4 kts 274°
2026-04-23 16:57 43.34809 77.01752 2228 ft 5 kts 274°
2026-04-23 16:58 43.34811 77.01708 2226 ft 5 kts 274°
2026-04-23 16:58 43.34823 77.01665 2228 ft 5 kts 316°
2026-04-23 16:58 43.34857 77.01653 2226 ft 6 kts
2026-04-23 16:58 43.34875 77.01653 2227 ft 2 kts
2026-04-23 16:59 43.34886 77.01654 2226 ft 1 kts
2026-04-23 16:59 43.34888 77.01654 2227 ft 0 kts